SL-16 DEB, 22340

Orbit data source: Space-Track

SL-16 DEB, 22340 is space debris in LEO originally from a launch on Fri, 25 Dec 1992 UTC launched from the Tyuratam Missile And Space Complex (TTMTR). Debris objects in space refer to the collection of defunct objects orbiting the Earth. Examples of debris include non-operational satellites, rocket bodies, and fragments generated from explosions, collisions, or faulty payload assembly.

Loading next visibility...
Identifier
22340, 1992-093AD
Orbit
LEO
Country
Flag of CISCIS
Related business
Manufacturer
Unknown
Mission
Spacecraft
Bus & Motor
Unknown
Mass
Unknown
Launch date (UTC)
1992-12-25 (33 years ago)
Launch vehicle
Unknown
Launch site
Tyuratam Missile And Space Complex (TTMTR)
Object type
Payload
Rocket body
Debris
Shape & HBR
Unknown
Radar Cross Section
Medium (>0.1 m² and <1 m²)

Expand to show TLE details & history
Last TLE update: 1 day ago

TLE from 1 day ago
0 SL-16 DEB
1 22340U 92093AD  25242.03502331  .00000024  00000-0  49849-4 0  9990
2 22340  70.8785 353.5301 0099097  67.7611 106.1683 13.94500055662023
Epoch: 2025-08-30T00:50Z
TLE epoch observation values (Epoch: 2025-08-30T00:50:26.014Z)
Latitude
4.63117°
Longitude
-179.15434°
Altitude
935.571 km
Speed
7.374 km/s
True Right ascension
11h 27m 42s
True Declination
4° 36' 15"
Sunlit
Object was in daylight at epoch
Visualization orbit readout
Latitude
Unknown
Longitude
Unknown
Altitude
Unknown
Speed
Unknown
Apparent Right ascension
Unknown
Apparent Declination
Unknown
Sunlit
N/A
Visualization observer readout
Local Sidereal Time
16:05:08
Azimuth
Unknown
Elevation
Unknown
Doppler factor
Unknown
Orbital elements
Apogee altitude
983.091 km
Perigee altitude
838.628 km
Semi-major axis
7,288.997 km
Eccentricity
0.00991
Inclination
70.8785°
RAAN
353.5301°
Arg. of periapsis
67.7611°
True anomaly
107.25514°
Mean anomaly
106.1683°
Eccentric anomaly
106.7121°
Mean motion
3.48772 °/min
Orbital period
103.22 mins
BSTAR
0.000049849
Loading maneuver chart data...
Computing Atmospheric mass density...
Loading historical data...
Loading historical data...
Loading historical data...
Loading historical data...
Loading historical data...
Loading historical data...
Loading historical data...

Documentation

Showing up to 5 results
|